EW5549 Weather Reports


Display with metric or nautical units.
time (UTC)temp
F
wind
direction
speed
MPH
gust
MPH
rain 1hr
in
rain 24hr
in
rain mn
in
humidity
%
barometer
mb
20260906095315 56 252 8.0 9.0 0.00 0.00 0.00 80 1019.2
20260906094814 57 253 10.0 11.0 0.00 0.00 0.00 80 1018.9
20260906094309 56 272 7.0 9.0 0.00 0.00 0.00 81 1018.6
20260906093806 57 267 4.0 6.0 0.00 0.00 0.00 80 1018.5
20260906093301 57 298 4.0 5.0 0.00 0.00 0.00 79 1018.5
20260906092755 57 313 4.0 5.0 0.00 0.00 0.00 80 1018.4
20260906092250 57 298 3.0 3.0 0.00 0.00 0.00 80 1018.5
20260906091746 57 346 3.0 3.0 0.00 0.00 0.00 79 1018.5
20260906091242 57 315 3.0 5.0 0.00 0.00 0.00 79 1018.5
20260906090738 58 262 5.0 6.0 0.00 0.00 0.00 79 1018.5
20260906090237 58 324 5.0 6.0 0.00 0.00 0.00 79 1018.8
20260906085736 57 287 5.0 6.0 0.00 0.00 0.00 79 1018.7
20260906085236 57 294 5.0 6.0 0.00 0.00 0.00 79 1018.9
20260906084731 57 308 4.0 5.0 0.00 0.00 0.00 80 1018.5
20260906084231 57 316 5.0 6.0 0.00 0.00 0.00 80 1018.8
20260906083725 57 321 6.0 7.0 0.00 0.00 0.00 79 1018.8
20260906083221 57 299 7.0 7.0 0.00 0.00 0.00 80 1018.7
20260906082716 57 304 5.0 6.0 0.00 0.00 0.00 80 1018.7
20260906082211 57 307 3.0 3.0 0.00 0.00 0.00 80 1018.6
20260906081707 57 300 4.0 5.0 0.00 0.00 0.00 80 1018.9
20260906081156 56 312 5.0 7.0 0.00 0.00 0.00 81 1019.1
20260906080653 56 297 5.0 6.0 0.00 0.00 0.00 82 1019.2
20260906080149 55 266 5.0 6.0 0.00 0.00 0.00 83 1018.9
20260906075648 56 266 6.0 7.0 0.00 0.00 0.00 84 1019.2
20260906075143 55 261 6.0 6.0 0.00 0.00 0.00 85 1019.2
20260906074638 55 252 3.0 3.0 0.00 0.00 0.00 85 1019.2
20260906074137 56 240 4.0 5.0 0.00 0.00 0.00 84 1019.1
20260906073632 56 357 2.0 2.0 0.00 0.00 0.00 84 1019.2
20260906073128 56 30 1.0 2.0 0.00 0.00 0.00 84 1019.4
20260906072622 56 36 1.0 1.0 0.00 0.00 0.00 84 1019.3
20260906072119 57 35 0.0 0.0 0.00 0.00 0.00 83 1019.5
20260906071615 57 11 1.0 1.0 0.00 0.00 0.00 83 1019.6
20260906071109 56 350 3.0 3.0 0.00 0.00 0.00 84 1019.4
20260906070606 57 30 3.0 3.0 0.00 0.00 0.00 83 1019.5
20260906070101 57 51 2.0 2.0 0.00 0.00 0.00 83 1019.8
20260906065600 56 5 1.0 2.0 0.00 0.00 0.00 83 1019.8
20260906065056 56 11 2.0 2.0 0.00 0.00 0.00 83 1019.7
20260906064552 57 48 1.0 1.0 0.00 0.00 0.00 83 1019.8
20260906064046 57 15 2.0 2.0 0.00 0.00 0.00 82 1019.9
20260906063542 57 22 2.0 2.0 0.00 0.00 0.00 82 1019.9
20260906063038 57 35 1.0 1.0 0.00 0.00 0.00 83 1019.9
20260906062533 57 40 2.0 3.0 0.00 0.00 0.00 83 1019.9
20260906062027 57 30 1.0 2.0 0.00 0.00 0.00 82 1020.3
20260906061523 57 27 3.0 5.0 0.00 0.00 0.00 82 1020.1
20260906061022 57 25 2.0 2.0 0.00 0.00 0.00 81 1020.1
20260906060519 57 32 2.0 2.0 0.00 0.00 0.00 81 1020.3
20260906060016 57 17 1.0 2.0 0.00 0.00 0.00 81 1020.3
20260906055511 57 13 2.0 2.0 0.00 0.00 0.00 80 1020.2
20260906055006 57 42 0.0 0.0 0.00 0.00 0.00 80 1020.4
20260906054501 57 42 1.0 3.0 0.00 0.00 0.00 80 1020.3
20260906053956 58 42 0.0 1.0 0.00 0.00 0.00 79 1020.3
20260906053453 58 14 3.0 3.0 0.00 0.00 0.00 78 1020.4
20260906052948 59 343 5.0 7.0 0.00 0.00 0.00 77 1020.2
20260906052444 59 11 4.0 6.0 0.00 0.00 0.00 76 1020.4
20260906051941 59 5 4.0 6.0 0.00 0.00 0.00 75 1020.3
20260906051436 59 30 0.0 0.0 0.00 0.00 0.00 76 1020.5
20260906050932 59 286 5.0 5.0 0.00 0.00 0.00 75 1020.6
20260906050431 60 2 2.0 2.0 0.00 0.00 0.00 74 1020.4
20260906045930 60 304 6.0 7.0 0.00 0.00 0.00 74 1020.3
20260906045429 60 299 9.0 9.0 0.00 0.00 0.00 74 1020.3
20260906044925 60 326 7.0 9.0 0.00 0.00 0.00 72 1020.4
20260906044420 60 313 5.0 6.0 0.00 0.00 0.00 70 1020.4
20260906043916 60 317 6.0 7.0 0.00 0.00 0.00 68 1020.4
20260906043412 61 338 3.0 3.0 0.00 0.00 0.00 67 1020.3
20260906042907 60 296 6.0 7.0 0.00 0.00 0.00 68 1020.2
20260906042406 61 315 8.0 10.0 0.00 0.00 0.00 67 1020.2
20260906041901 61 318 10.0 13.0 0.00 0.00 0.00 64 1020.1
20260906041356 61 321 7.0 9.0 0.00 0.00 0.00 65 1020.1
20260906040851 61 318 11.0 16.0 0.00 0.00 0.00 64 1020.2
20260906040346 62 314 11.0 13.0 0.00 0.00 0.00 63 1019.9
20260906035842 62 309 16.0 20.0 0.00 0.00 0.00 63 1019.7
20260906035337 62 334 10.0 11.0 0.00 0.00 0.00 61 1019.6
20260906034832 63 304 13.0 15.0 0.00 0.00 0.00 60 1019.7
20260906034327 63 295 11.0 11.0 0.00 0.00 0.00 59 1019.6
20260906033823 62 329 6.0 7.0 0.00 0.00 0.00 61 1019.5
20260906033322 64 260 9.0 10.0 0.00 0.00 0.00 60 1019.1
20260906032818 64 311 10.0 11.0 0.00 0.00 0.00 57 1019.2
20260906032314 64 284 9.0 10.0 0.00 0.00 0.00 57 1018.9
20260906031809 64 328 4.0 5.0 0.00 0.00 0.00 59 1019.1
20260906031305 64 270 7.0 8.0 0.00 0.00 0.00 58 1018.8
20260906030804 64 283 9.0 10.0 0.00 0.00 0.00 57 1018.6
20260906030300 65 290 7.0 8.0 0.00 0.00 0.00 55 1018.4
20260906025759 64 328 4.0 5.0 0.00 0.00 0.00 57 1018.3
20260906025253 64 297 8.0 9.0 0.00 0.00 0.00 57 1018.3
20260906024752 66 357 5.0 7.0 0.00 0.00 0.00 55 1018.2
20260906024252 66 299 14.0 16.0 0.00 0.00 0.00 54 1017.8
20260906023747 66 335 8.0 9.0 0.00 0.00 0.00 54 1017.9
20260906023243 66 292 6.0 8.0 0.00 0.00 0.00 53 1017.5
20260906022738 66 298 5.0 7.0 0.00 0.00 0.00 53 1017.6
20260906022233 65 308 12.0 15.0 0.00 0.00 0.00 53 1017.8
20260906021729 66 359 4.0 6.0 0.00 0.00 0.00 55 1017.6
20260906021228 68 348 5.0 6.0 0.00 0.00 0.00 50 1017.3
20260906020723 67 298 12.0 16.0 0.00 0.00 0.00 50 1017.3
20260906020217 67 287 10.0 11.0 0.00 0.00 0.00 50 1017.0
20260906015712 66 297 8.0 9.0 0.00 0.00 0.00 52 1017.0
20260906015211 67 289 10.0 11.0 0.00 0.00 0.00 52 1017.2
20260906014711 67 287 11.0 13.0 0.00 0.00 0.00 52 1016.9
20260906014207 66 272 8.0 9.0 0.00 0.00 0.00 55 1016.7
20260906013702 66 272 7.0 8.0 0.00 0.00 0.00 55 1016.9
20260906013157 66 274 6.0 7.0 0.00 0.00 0.00 54 1016.7
20260906012657 66 287 6.0 6.0 0.00 0.00 0.00 56 1016.7
20260906012151 67 276 5.0 6.0 0.00 0.00 0.00 56 1016.7
20260906011648 67 288 7.0 8.0 0.00 0.00 0.00 53 1016.6
20260906011142 67 309 4.0 5.0 0.00 0.00 0.00 56 1016.5
20260906010637 68 327 5.0 6.0 0.00 0.00 0.00 55 1016.5
20260906010134 68 310 5.0 6.0 0.00 0.00 0.00 53 1016.6
20260906005633 68 295 6.0 7.0 0.00 0.00 0.00 52 1016.6
20260906005127 69 300 7.0 9.0 0.00 0.00 0.00 53 1016.5
20260906004626 70 349 8.0 9.0 0.00 0.00 0.00 49 1016.6
20260906004121 71 327 4.0 6.0 0.00 0.00 0.00 50 1016.5
20260906003616 72 358 7.0 9.0 0.00 0.00 0.00 49 1016.6
20260906003112 72 325 5.0 6.0 0.00 0.00 0.00 50 1016.7
20260906002607 72 340 6.0 9.0 0.00 0.00 0.00 50 1016.5
20260906002101 72 21 5.0 7.0 0.00 0.00 0.00 49 1016.6
20260906001556 72 339 5.0 7.0 0.00 0.00 0.00 49 1016.6
20260906001051 73 336 6.0 8.0 0.00 0.00 0.00 49 1016.6
20260906000547 73 351 6.0 9.0 0.00 0.00 0.00 49 1016.8
20260906000042 73 308 6.0 7.0 0.00 0.00 0.00 49 1016.6
20260905235536 73 349 5.0 7.0 0.00 0.00 0.00 49 1016.7
20260905235031 73 344 4.0 7.0 0.00 0.00 0.00 50 1016.7
20260905234527 73 339 6.0 8.0 0.00 0.00 0.00 48 1016.5
20260905234027 74 0 5.0 7.0 0.00 0.00 0.00 49 1016.6
20260905233521 74 32 3.0 3.0 0.00 0.00 0.00 47 1016.6
20260905233021 75 22 3.0 3.0 0.00 0.00 0.00 47 1016.6
20260905232517 75 321 4.0 5.0 0.00 0.00 0.00 48 1016.7
20260905232012 75 9 2.0 2.0 0.00 0.00 0.00 44 1016.8
20260905231508 74 76 4.0 6.0 0.00 0.00 0.00 43 1016.5
20260905231004 74 5 3.0 5.0 0.00 0.00 0.00 46 1016.8
20260905230503 74 22 5.0 7.0 0.00 0.00 0.00 45 1016.8
20260905230001 74 326 6.0 7.0 0.00 0.00 0.00 47 1016.8
20260905225456 74 7 7.0 9.0 0.00 0.00 0.00 46 1016.8
20260905224951 74 53 5.0 7.0 0.00 0.00 0.00 48 1016.9
20260905224446 74 13 5.0 7.0 0.00 0.00 0.00 47 1016.9
20260905223945 74 43 4.0 6.0 0.00 0.00 0.00 49 1017.3
20260905223443 73 355 3.0 3.0 0.00 0.00 0.00 50 1017.3
20260905222943 73 355 7.0 8.0 0.00 0.00 0.00 47 1017.4
20260905222438 73 359 4.0 6.0 0.00 0.00 0.00 48 1017.5
20260905221934 73 337 5.0 6.0 0.00 0.00 0.00 47 1017.6
20260905221430 73 345 7.0 9.0 0.00 0.00 0.00 48 1017.6
20260905220926 73 329 5.0 6.0 0.00 0.00 0.00 47 1017.7
20260905220422 72 5 5.0 7.0 0.00 0.00 0.00 47 1017.9
20260905215921 71 338 6.0 6.0 0.00 0.00 0.00 49 1017.8
20260905215416 72 36 2.0 3.0 0.00 0.00 0.00 49 1017.8
20260905214913 73 336 7.0 8.0 0.00 0.00 0.00 47 1017.9
20260905214409 71 341 4.0 5.0 0.00 0.00 0.00 50 1018.0
20260905213908 72 301 6.0 7.0 0.00 0.00 0.00 47 1018.2
20260905213405 72 344 3.0 3.0 0.00 0.00 0.00 50 1018.2
20260905212900 70 309 3.0 6.0 0.00 0.00 0.00 51 1018.4
20260905212400 71 346 4.0 6.0 0.00 0.00 0.00 49 1018.4
20260905211853 70 289 4.0 5.0 0.00 0.00 0.00 50 1018.3
20260905211349 72 305 7.0 9.0 0.00 0.00 0.00 46 1018.5
20260905210846 71 24 4.0 5.0 0.00 0.00 0.00 49 1018.5
20260905210345 70 311 6.0 7.0 0.00 0.00 0.00 48 1018.5
20260905205844 71 58 0.0 0.0 0.00 0.00 0.00 48 1018.6
20260905205339 71 48 2.0 3.0 0.00 0.00 0.00 49 1018.7
20260905204838 70 51 1.0 1.0 0.00 0.00 0.00 48 1018.7
20260905204335 70 22 2.0 2.0 0.00 0.00 0.00 50 1018.8
20260905203833 70 29 1.0 2.0 0.00 0.00 0.00 49 1018.6
20260905203329 70 45 4.0 6.0 0.00 0.00 0.00 49 1018.8
20260905202825 70 14 3.0 3.0 0.00 0.00 0.00 47 1018.8
20260905202320 71 38 3.0 3.0 0.00 0.00 0.00 46 1018.9
20260905201815 70 25 3.0 3.0 0.00 0.00 0.00 49 1018.9
20260905201311 69 34 3.0 3.0 0.00 0.00 0.00 50 1019.2
20260905200805 68 21 1.0 2.0 0.00 0.00 0.00 52 1019.2
20260905200301 68 29 2.0 2.0 0.00 0.00 0.00 52 1019.1
20260905195758 67 2 4.0 5.0 0.00 0.00 0.00 51 1019.2
20260905195254 67 314 5.0 6.0 0.00 0.00 0.00 50 1019.4
20260905194749 67 20 3.0 3.0 0.00 0.00 0.00 52 1019.3
20260905194249 68 63 1.0 1.0 0.00 0.00 0.00 52 1019.4
20260905193748 67 8 3.0 3.0 0.00 0.00 0.00 53 1019.4
20260905193243 67 309 4.0 5.0 0.00 0.00 0.00 52 1019.3
20260905192739 67 359 2.0 3.0 0.00 0.00 0.00 52 1019.5
20260905192235 67 315 5.0 6.0 0.00 0.00 0.00 52 1019.5
20260905191734 67 57 0.0 1.0 0.00 0.00 0.00 52 1019.8
20260905191232 66 31 2.0 2.0 0.00 0.00 0.00 52 1019.6
20260905190731 66 330 4.0 5.0 0.00 0.00 0.00 53 1019.7
20260905190231 66 291 3.0 5.0 0.00 0.00 0.00 53 1019.8
20260905185730 66 303 5.0 7.0 0.00 0.00 0.00 53 1019.8
20260905185225 66 352 3.0 3.0 0.00 0.00 0.00 53 1019.8
20260905184719 65 14 2.0 3.0 0.00 0.00 0.00 53 1019.8
20260905184218 66 283 6.0 7.0 0.00 0.00 0.00 53 1020.1
20260905183712 65 30 3.0 3.0 0.00 0.00 0.00 54 1020.2
20260905183207 67 324 5.0 6.0 0.00 0.00 0.00 53 1020.2
20260905182701 67 46 3.0 3.0 0.00 0.00 0.00 53 1020.1
20260905182200 67 50 2.0 3.0 0.00 0.00 0.00 54 1020.1
20260905181656 66 17 3.0 3.0 0.00 0.00 0.00 54 1020.1
20260905181155 66 53 0.0 0.0 0.00 0.00 0.00 52 1020.1
20260905180649 66 41 1.0 1.0 0.00 0.00 0.00 53 1020.4
20260905180146 67 316 5.0 7.0 0.00 0.00 0.00 52 1020.4
20260905175644 67 27 1.0 2.0 0.00 0.00 0.00 50 1020.3
20260905175140 68 131 2.0 3.0 0.00 0.00 0.00 50 1020.4
20260905174635 66 16 3.0 3.0 0.00 0.00 0.00 53 1020.4
20260905174131 65 34 2.0 2.0 0.00 0.00 0.00 54 1020.6
20260905173626 65 23 1.0 2.0 0.00 0.00 0.00 54 1020.7
20260905173122 65 32 0.0 0.0 0.00 0.00 0.00 57 1020.7
20260905172621 65 164 3.0 3.0 0.00 0.00 0.00 55 1020.7
20260905172116 64 29 1.0 2.0 0.00 0.00 0.00 56 1020.7
20260905171612 64 280 4.0 5.0 0.00 0.00 0.00 56 1020.8
20260905171108 63 353 2.0 2.0 0.00 0.00 0.00 58 1020.7
20260905170604 64 292 5.0 7.0 0.00 0.00 0.00 57 1020.6
20260905170059 64 5 3.0 3.0 0.00 0.00 0.00 58 1020.7
20260905165554 64 41 2.0 2.0 0.00 0.00 0.00 59 1020.8
20260905165049 64 5 3.0 3.0 0.00 0.00 0.00 58 1020.9
20260905164544 64 14 3.0 3.0 0.00 0.00 0.00 59 1021.1
20260905164038 64 313 5.0 6.0 0.00 0.00 0.00 58 1021.2
20260905163534 64 299 5.0 6.0 0.00 0.00 0.00 59 1021.1
20260905163030 63 4 3.0 5.0 0.00 0.00 0.00 61 1021.2
20260905162527 62 30 2.0 2.0 0.00 0.00 0.00 63 1020.9
20260905162021 62 334 5.0 6.0 0.00 0.00 0.00 63 1021.1
20260905161520 62 317 5.0 6.0 0.00 0.00 0.00 63 1020.9
20260905161018 62 334 5.0 6.0 0.00 0.00 0.00 62 1020.9
20260905160511 62 340 6.0 7.0 0.00 0.00 0.00 64 1021.1
20260905160006 62 323 5.0 7.0 0.00 0.00 0.00 63 1021.2
20260905155506 62 307 7.0 8.0 0.00 0.00 0.00 62 1021.1
20260905155004 61 276 3.0 3.0 0.00 0.00 0.00 66 1020.7
20260905154500 61 289 5.0 6.0 0.00 0.00 0.00 68 1020.8
20260905153955 61 306 4.0 5.0 0.00 0.00 0.00 66 1021.1
20260905153452 61 301 2.0 2.0 0.00 0.00 0.00 67 1020.9
20260905152951 60 195 3.0 3.0 0.00 0.00 0.00 69 1020.9
20260905152450 60 272 2.0 2.0 0.00 0.00 0.00 69 1021.1
20260905151946 59 312 3.0 3.0 0.00 0.00 0.00 70 1021.1
20260905151441 59 259 2.0 2.0 0.00 0.00 0.00 71 1021.1
20260905150936 58 249 3.0 3.0 0.00 0.00 0.00 74 1021.1
20260905150431 58 268 4.0 5.0 0.00 0.00 0.00 74 1020.9
20260905145927 58 276 5.0 5.0 0.00 0.00 0.00 74 1021.1
20260905145422 58 317 3.0 3.0 0.00 0.00 0.00 74 1020.9
20260905144921 58 277 4.0 5.0 0.00 0.00 0.00 76 1020.9
20260905144417 57 263 4.0 5.0 0.00 0.00 0.00 76 1020.8
20260905143915 57 265 3.0 3.0 0.00 0.00 0.00 78 1020.8
20260905143409 56 269 3.0 5.0 0.00 0.00 0.00 79 1021.1
20260905142904 55 250 5.0 6.0 0.00 0.00 0.00 80 1020.8
20260905142403 55 275 5.0 5.0 0.00 0.00 0.00 82 1020.9
20260905141859 53 282 2.0 2.0 0.00 0.00 0.00 84 1020.8
20260905141353 53 293 3.0 3.0 0.00 0.00 0.00 84 1021.1
20260905140850 53 273 4.0 5.0 0.00 0.00 0.00 85 1020.7
20260905140350 53 273 4.0 6.0 0.00 0.00 0.00 84 1020.8
20260905135848 53 274 3.0 5.0 0.00 0.00 0.00 84 1020.7
20260905135344 53 245 5.0 5.0 0.00 0.00 0.00 84 1020.8
20260905134839 53 250 6.0 8.0 0.00 0.00 0.00 84 1020.7
20260905134338 53 242 5.0 6.0 0.00 0.00 0.00 86 1020.8
20260905133833 53 237 4.0 5.0 0.00 0.00 0.00 86 1020.6
20260905133328 53 357 1.0 1.0 0.00 0.00 0.00 86 1020.2
20260905132826 53 250 4.0 5.0 0.00 0.00 0.00 87 1020.6
20260905132323 53 255 3.0 3.0 0.00 0.00 0.00 86 1020.1
20260905131817 53 242 4.0 5.0 0.00 0.00 0.00 87 1020.4
20260905131313 53 249 3.0 3.0 0.00 0.00 0.00 85 1020.1
20260905130808 53 239 1.0 2.0 0.00 0.00 0.00 85 1019.9
20260905130306 53 255 5.0 6.0 0.00 0.00 0.00 84 1020.1
20260905125802 54 283 4.0 5.0 0.00 0.00 0.00 84 1020.1
20260905125256 54 264 5.0 6.0 0.00 0.00 0.00 84 1020.3
20260905124753 53 271 3.0 3.0 0.00 0.00 0.00 85 1020.3
20260905124249 54 259 2.0 2.0 0.00 0.00 0.00 85 1020.1
20260905123744 53 298 3.0 5.0 0.00 0.00 0.00 86 1020.1
20260905123241 54 263 5.0 6.0 0.00 0.00 0.00 86 1019.9
20260905122740 54 284 4.0 5.0 0.00 0.00 0.00 86 1019.8
20260905122234 54 257 5.0 6.0 0.00 0.00 0.00 86 1019.8
20260905121730 54 245 5.0 6.0 0.00 0.00 0.00 85 1019.8
20260905121226 53 287 5.0 6.0 0.00 0.00 0.00 86 1019.4
20260905120725 53 269 3.0 3.0 0.00 0.00 0.00 86 1019.4
20260905120219 53 252 3.0 3.0 0.00 0.00 0.00 87 1019.7
20260905115714 54 272 5.0 6.0 0.00 0.00 0.00 85 1019.5
20260905115208 54 288 3.0 3.0 0.00 0.00 0.00 84 1019.6
20260905114703 54 312 3.0 3.0 0.00 0.00 0.00 84 1019.5
20260905114201 55 291 3.0 3.0 0.00 0.00 0.00 83 1019.9
20260905113655 55 330 2.0 2.0 0.00 0.00 0.00 83 1019.9
20260905113151 54 312 5.0 5.0 0.00 0.00 0.00 83 1019.5
20260905112650 54 307 4.0 5.0 0.00 0.00 0.00 84 1019.8
20260905112147 55 270 5.0 5.0 0.00 0.00 0.00 84 1019.9
20260905111646 55 290 2.0 2.0 0.00 0.00 0.00 83 1019.9
20260905111145 55 285 5.0 6.0 0.00 0.00 0.00 83 1019.8
20260905110645 55 269 4.0 5.0 0.00 0.00 0.00 83 1019.6
20260905110140 54 293 5.0 6.0 0.00 0.00 0.00 84 1019.5
20260905105635 54 283 8.0 8.0 0.00 0.00 0.00 84 1019.6
20260905105134 54 267 6.0 7.0 0.00 0.00 0.00 84 1019.7
20260905104629 54 238 5.0 5.0 0.00 0.00 0.00 84 1019.3
20260905104125 55 248 3.0 3.0 0.00 0.00 0.00 84 1018.8
20260905103620 55 307 6.0 7.0 0.00 0.00 0.00 83 1018.7
20260905103116 55 44 0.0 0.0 0.00 0.00 0.00 81 1019.1
20260905102611 55 287 5.0 7.0 0.00 0.00 0.00 81 1019.4
20260905102108 55 289 6.0 7.0 0.00 0.00 0.00 81 1019.3
20260905101606 55 257 4.0 5.0 0.00 0.00 0.00 81 1019.2
20260905101104 55 312 4.0 5.0 0.00 0.00 0.00 82 1018.8
20260905100601 56 301 5.0 6.0 0.00 0.00 0.00 80 1019.3
20260905100055 56 319 5.0 5.0 0.00 0.00 0.00 78 1019.2